DELTA 1 DEB, 27729

Orbit data source: Space-Track

DELTA 1 DEB, 27729 is space debris in LEO originally from a launch on Thu, 14 Jul 1977 UTC launched from the Air Force Eastern Test Range (AFETR). Debris objects in space refer to the collection of defunct objects orbiting the Earth. Examples of debris include non-operational satellites, rocket bodies, and fragments generated from explosions, collisions, or faulty payload assembly.

Not visible in the next 10 days
Identifier
27729, 1977-065GH
Orbit
LEO
Country
Flag of USUS
Related business
Manufacturer
Unknown
Mission
Spacecraft
Bus & Motor
Unknown
Mass
Unknown
Launch date (UTC)
1977-07-14 (49 years ago)
Launch vehicle
Unknown
Launch site
Air Force Eastern Test Range (AFETR)
Object type
Payload
Rocket body
Debris
Shape & HBR
Unknown shape, 0.1 m
Radar Cross Section
Small (<0.1 m²)

Expand to show TLE details & history
Last TLE update: 2 days ago

TLE from 2 days ago
0 DELTA 1 DEB
1 27729U 77065GH  26131.66373106  .00006828  00000-0  11568-2 0  9994
2 27729  28.6414 344.7901 0367707  73.8199 290.2514 14.31764222696869
Epoch: 2026-05-11T15:55Z
TLE epoch observation values (Epoch: 2026-05-11T15:55:46.363Z)
Latitude
-0.00003°
Longitude
-123.60235°
Altitude
701.704 km
Speed
7.55 km/s
True Right ascension
22h 59m 09s
True Declination
0° 00' 00"
Sunlit
Object was in daylight at epoch
Visualization orbit readout
Latitude
Unknown
Longitude
Unknown
Altitude
Unknown
Speed
Unknown
Apparent Right ascension
Unknown
Apparent Declination
Unknown
Sunlit
N/A
Visualization observer readout
Local Sidereal Time
18:21:12
Azimuth
Unknown
Elevation
Unknown
Doppler factor
Unknown
Orbital elements
Apogee altitude
1,053.456 km
Perigee altitude
526.31 km
Semi-major axis
7,168.02 km
Eccentricity
0.03677
Inclination
28.6414°
RAAN
344.7901°
Arg. of periapsis
73.8199°
True anomaly
286.23769°
Mean anomaly
290.2514°
Eccentric anomaly
288.25057°
Mean motion
3.57639 °/min
Orbital period
100.66 mins
BSTAR
0.0011568
Loading maneuver chart data...
Computing Atmospheric mass density...

Documentation

Showing up to 5 results
|